BARATARIA BAY NEAR GRAND ISLE 13 LA US USGS current weather conditions

sailwx.info

Wind from 130 at 12 knots

Last reported at 2020-Jan-18 11:00 UTC.
Time now 2020-Jan-18 12:40 UTC

Location: N 29°25' W 089°57'.
View on Google Maps.

See reports from other nearby stations

  
Tides and Currents Weather Stations Pressure Air Temp Water Temp Dewpoint Dewpoint Depression Visibility Wind Speed Wind Dir Waves Ship Positions
date/time (UTC)wind fromknots sea level pressurealtimeterstation pressurevisibilityair tempwater tempwave heightnotes
2020-Jan-18 11:00 130 12
2020-Jan-18 10:00 130 12
2020-Jan-18 09:00 123 12
2020-Jan-18 08:00 110 13
2020-Jan-18 07:00 109 15
2020-Jan-18 06:00 111 15
2020-Jan-18 05:00 116 18
2020-Jan-18 04:00 109 17
2020-Jan-18 03:00 103 16
2020-Jan-18 02:00 080 11
2020-Jan-18 01:00 082 11
2020-Jan-18 00:00 067 12
2020-Jan-17 23:00 076 14
2020-Jan-17 22:00 067 9
2020-Jan-17 21:00 072 11
2020-Jan-17 20:00 084 15
2020-Jan-17 19:00 081 15
2020-Jan-17 18:00 086 15
2020-Jan-17 17:00 080 15
2020-Jan-17 16:00 081 17
2020-Jan-17 15:00 061 17
2020-Jan-17 14:00 067 17
2020-Jan-17 13:00 060 17
2020-Jan-17 12:00 067 14
2020-Jan-17 11:00 045 13
2020-Jan-17 10:00 050 13
2020-Jan-17 09:00 068 14
2020-Jan-17 08:00 075 13
2020-Jan-17 07:00 051 15
2020-Jan-17 06:00 051 13
2020-Jan-17 05:00 054 15
2020-Jan-17 04:00 056 14
2020-Jan-17 03:00 052 15
2020-Jan-17 02:00 060 9
2020-Jan-17 01:00 078 9
2020-Jan-17 00:00 073 12
2020-Jan-16 23:00 077 9
2020-Jan-16 22:00 050 4
2020-Jan-16 21:00 101 4
2020-Jan-16 20:00 064 2
2020-Jan-16 19:00 111 1
2020-Jan-16 18:00 236 0
2020-Jan-16 17:00 024 5
2020-Jan-16 16:00 043 2
2020-Jan-16 15:00 037 6
2020-Jan-16 14:00 051 5
2020-Jan-16 13:00 084 1
2020-Jan-16 12:00 070 2